Date String (YYYY-MM-DD hh:mm:ss) UTC,Instrument flags,absolute air pressure of the measurement (hPa),sample flow rate (lpm),inlet stack bypass flow (lpm),air temperature of the measurement (°C),ambient temperature measured by the external sensor (°C),aerosol sample conditioner tube jacket temperature (°C),OPC LED temperature (°C),internal box temperature (°C),relative humidity of the measurement (%),span deviation,mass concentration of particles derived from Lorenz-Mie calculation of OPC scattering (μg/m³),mass concentration of particles derived from Lorenz-Mie calculation of OPC scattering (μg/m³),mass concentration of particles derived from Lorenz-Mie calculation of OPC scattering (μg/m³)
DateTimeUTC,F1_M11,P_M11,Q1_M11,Q2_M11,T1_M11,T2_M11,T3_M11,T4_M11,T5_M11,U1_M11,ZSPAN_M11,X0_M11,X2_M11,X1_M11
2023-07-21 21:00:00,SystemResetWarning,0836.9,5.00,000.00,029.0,027.8,000.0,037.3,030.8,26.9,0001.5,0012.67,0007.49,0007.19
2023-07-21 21:01:00,SystemResetWarning,0836.8,4.99,000.00,029.0,026.3,000.0,037.2,030.6,26.7,0001.7,0011.83,0007.45,0007.13
2023-07-21 21:02:00,SystemResetWarning,0836.8,5.00,000.00,029.0,025.1,000.0,037.1,030.3,27.6,0001.4,0011.27,0007.43,0007.10
2023-07-21 21:03:00,SystemResetWarning,0836.8,5.00,000.00,028.9,024.9,000.0,037.1,030.1,28.2,0001.2,0011.28,0007.41,0007.06
2023-07-21 21:04:00,SystemResetWarning,0836.8,5.01,000.00,028.8,025.2,000.0,037.1,030.1,27.9,0001.0,0011.03,0007.36,0007.01
2023-07-21 21:05:00,SystemResetWarning,0836.8,4.99,000.00,028.8,025.7,000.0,037.1,030.2,26.1,0000.9,0010.99,0007.31,0006.97
2023-07-21 21:06:00,SystemResetWarning,0836.8,5.00,000.00,028.8,026.2,000.0,037.2,030.3,26.3,0001.0,0010.93,0007.31,0006.96
2023-07-21 21:07:00,SystemResetWarning,0836.8,5.00,000.00,028.8,026.6,000.0,037.2,030.4,26.4,0001.0,0010.74,0007.27,0006.94
2023-07-21 21:08:00,SystemResetWarning,0836.7,5.00,000.00,028.8,026.9,000.0,037.2,030.5,26.6,0001.0,0010.77,0007.21,0006.90
2023-07-21 21:09:00,SystemResetWarning,0836.8,4.99,000.00,028.9,027.3,000.0,037.2,030.6,27.2,0001.2,0010.96,0007.25,0006.91
2023-07-21 21:10:00,SystemResetWarning,0836.8,5.00,000.00,028.9,027.5,000.0,037.3,030.6,24.5,0001.1,0010.33,0007.25,0006.90
2023-07-21 21:11:00,SystemResetWarning,0836.8,4.99,000.00,029.0,027.7,000.0,037.3,030.7,23.4,0000.4,0010.12,0007.17,0006.82
2023-07-21 21:12:00,SystemResetWarning,0836.8,5.00,000.00,029.0,026.5,000.0,037.2,030.6,23.9,-000.1,0010.07,0007.11,0006.77
2023-07-21 21:13:00,SystemResetWarning,0836.7,5.00,000.00,028.9,025.0,000.0,037.1,030.3,23.8,0000.4,0009.96,0007.03,0006.70
2023-07-21 21:14:00,SystemResetWarning,0836.7,5.01,000.00,028.8,024.7,000.0,037.0,030.1,24.5,0000.5,0010.05,0006.95,0006.62
2023-07-21 21:15:00,SystemResetWarning,0836.6,5.01,000.00,028.7,025.0,000.0,037.0,030.0,25.3,0000.6,0010.03,0006.88,0006.57
2023-07-21 21:16:00,SystemResetWarning,0836.6,5.00,000.00,028.7,025.5,000.0,037.1,030.1,26.2,0000.9,0009.98,0006.82,0006.51
2023-07-21 21:17:00,SystemResetWarning,0836.6,5.00,000.00,028.7,026.0,000.0,037.1,030.2,26.4,0000.5,0009.91,0006.74,0006.43
2023-07-21 21:18:00,SystemResetWarning,0836.6,5.00,000.00,028.7,026.4,000.0,037.1,030.3,27.3,0000.6,0010.61,0006.69,0006.36
2023-07-21 21:19:00,SystemResetWarning,0836.6,5.00,000.00,028.8,026.8,000.0,037.1,030.4,28.4,0000.3,0010.80,0006.65,0006.28
2023-07-21 21:20:00,SystemResetWarning,0836.6,5.00,000.00,028.8,027.1,000.0,037.2,030.5,26.0,-000.4,0010.44,0006.56,0006.21
2023-07-21 21:21:00,SystemResetWarning,0836.6,5.01,000.00,028.8,027.4,000.0,037.2,030.6,24.3,-000.1,0010.31,0006.53,0006.18
2023-07-21 21:22:00,SystemResetWarning,0836.6,5.00,000.00,028.9,027.7,000.0,037.2,030.7,23.2,0000.2,0010.38,0006.55,0006.19
2023-07-21 21:23:00,SystemResetWarning,0836.6,5.00,000.00,028.9,027.5,000.0,037.2,030.7,23.4,0001.2,0010.53,0006.58,0006.21
2023-07-21 21:24:00,SystemResetWarning,0836.6,4.98,000.00,028.9,026.2,000.0,037.1,030.5,23.1,0001.0,0010.68,0006.57,0006.18
2023-07-21 21:25:00,SystemResetWarning,0836.7,5.01,000.00,028.9,025.6,000.0,037.0,030.3,23.8,0000.7,0010.70,0006.53,0006.14
2023-07-21 21:26:00,SystemResetWarning,0836.6,5.01,000.00,028.8,025.7,000.0,037.0,030.2,24.6,0000.3,0010.61,0006.49,0006.09
2023-07-21 21:27:00,SystemResetWarning,0836.6,5.00,000.00,028.8,026.0,000.0,037.1,030.2,23.5,0000.0,0010.59,0006.45,0006.03
2023-07-21 21:28:00,SystemResetWarning,0836.6,4.99,000.00,028.8,026.4,000.0,037.1,030.3,21.4,0000.0,0010.49,0006.40,0005.99
2023-07-21 21:29:00,SystemResetWarning,0836.6,5.00,000.00,028.8,026.8,000.0,037.2,030.4,25.7,0000.3,0009.76,0006.35,0005.95
2023-07-21 21:30:00,SystemResetWarning,0836.6,5.00,000.00,028.9,027.2,000.0,037.2,030.5,26.6,0001.3,0009.41,0006.31,0005.93
2023-07-21 21:31:00,SystemResetWarning,0836.6,5.01,000.00,028.9,027.4,000.0,037.2,030.6,27.8,0001.8,0009.41,0006.31,0005.94
2023-07-21 21:32:00,SystemResetWarning,0836.6,5.01,000.00,029.0,027.7,000.0,037.3,030.7,27.7,0001.9,0009.43,0006.28,0005.93
2023-07-21 21:33:00,SystemResetWarning,0836.6,4.99,000.00,029.0,027.1,000.0,037.2,030.7,25.9,0002.0,0009.38,0006.26,0005.91
2023-07-21 21:34:00,SystemResetWarning,0836.6,4.99,000.00,028.9,025.5,000.0,037.1,030.3,26.6,0001.9,0009.19,0006.22,0005.88
2023-07-21 21:35:00,SystemResetWarning,0836.6,5.01,000.00,028.8,024.8,000.0,037.0,030.2,26.7,0001.7,0009.10,0006.18,0005.87
2023-07-21 21:36:00,SystemResetWarning,0836.6,5.01,000.00,028.8,025.0,000.0,037.0,030.0,26.7,0001.6,0008.86,0006.19,0005.88
2023-07-21 21:37:00,SystemResetWarning,0836.6,4.99,000.00,028.7,025.4,000.0,037.1,030.1,26.2,0001.9,0008.89,0006.20,0005.87
2023-07-21 21:38:00,SystemResetWarning,0836.6,5.00,000.00,028.7,025.9,000.0,037.1,030.2,27.4,0002.0,0008.82,0006.17,0005.86
2023-07-21 21:39:00,SystemResetWarning,0836.6,5.00,000.00,028.7,026.3,000.0,037.1,030.3,24.4,0002.1,0008.77,0006.12,0005.83
2023-07-21 21:40:00,SystemResetWarning,0836.6,4.99,000.00,028.8,026.8,000.0,037.1,030.4,25.8,0001.8,0008.89,0006.06,0005.78
2023-07-21 21:41:00,SystemResetWarning,0836.6,5.00,000.00,028.8,027.1,000.0,037.2,030.5,26.1,0001.5,0009.80,0005.99,0005.71
2023-07-21 21:42:00,SystemResetWarning,0836.6,5.01,000.00,028.8,027.4,000.0,037.2,030.6,26.5,0001.4,0009.69,0005.90,0005.63
2023-07-21 21:43:00,SystemResetWarning,0836.6,4.99,000.00,028.9,027.7,000.0,037.2,030.7,25.9,0001.0,0009.65,0005.89,0005.62
2023-07-21 21:44:00,SystemResetWarning,0836.6,4.99,000.00,029.0,027.9,000.0,037.2,030.7,24.9,0000.7,0010.06,0005.93,0005.63
2023-07-21 21:45:00,SystemResetWarning,0836.5,4.99,000.00,029.0,027.6,000.0,037.2,030.7,25.0,0000.4,0010.11,0005.96,0005.69
2023-07-21 21:46:00,SystemResetWarning,0836.5,5.00,000.00,029.0,026.0,000.0,037.1,030.5,25.4,0000.3,0010.07,0006.02,0005.75
2023-07-21 21:47:00,SystemResetWarning,0836.5,5.00,000.00,028.9,024.9,000.0,037.0,030.3,25.7,0000.2,0010.15,0006.08,0005.81
2023-07-21 21:48:00,SystemResetWarning,0836.5,5.00,000.00,028.8,024.9,000.0,037.0,030.1,25.0,-000.1,0010.70,0006.12,0005.88
2023-07-21 21:49:00,SystemResetWarning,0836.6,5.01,000.00,028.7,025.3,000.0,037.0,030.1,25.2,-000.5,0011.37,0006.20,0005.94
2023-07-21 21:50:00,SystemResetWarning,0836.6,5.00,000.00,028.7,025.8,000.0,037.1,030.2,26.9,-000.3,0011.78,0006.31,0006.01
2023-07-21 21:51:00,SystemResetWarning,0836.6,5.00,000.00,028.7,026.3,000.0,037.1,030.3,26.3,0000.2,0011.74,0006.40,0006.08
2023-07-21 21:52:00,SystemResetWarning,0836.7,5.00,000.00,028.8,026.7,000.0,037.1,030.4,25.4,0000.7,0010.94,0006.47,0006.16
2023-07-21 21:53:00,SystemResetWarning,0836.6,4.99,000.00,028.8,027.0,000.0,037.2,030.5,24.6,-000.1,0010.80,0006.53,0006.22
2023-07-21 21:54:00,SystemResetWarning,0836.6,5.00,000.00,028.9,027.4,000.0,037.2,030.6,24.8,-000.1,0010.75,0006.50,0006.20
2023-07-21 21:55:00,SystemResetWarning,0836.5,5.00,000.00,028.9,027.6,000.0,037.2,030.7,24.6,0000.0,0010.38,0006.46,0006.19
2023-07-21 21:56:00,SystemResetWarning,0836.5,5.00,000.00,029.0,027.8,000.0,037.3,030.8,25.7,0000.0,0010.83,0006.44,0006.15
2023-07-21 21:57:00,SystemResetWarning,0836.5,4.99,000.00,029.0,027.2,000.0,037.2,030.7,26.8,0000.0,0011.07,0006.43,0006.11
2023-07-21 21:58:00,SystemResetWarning,0836.5,5.00,000.00,029.0,025.5,000.0,037.1,030.4,26.4,0001.0,0011.03,0006.42,0006.09
2023-07-21 21:59:00,SystemResetWarning,0836.4,5.01,000.00,028.9,024.8,000.0,037.0,030.2,26.4,0000.0,0010.43,0006.39,0006.06
